Change the Weather History Date:

Friday, January 10, 2014

  Actual Average Record
Temperature  
Mean Temperature 29 °F -  
Max Temperature 37 °F 24 °F 50 °F (1928)
Min Temperature 23 °F 7 °F -26 °F (1982)
Degree Days  
Heating Degree Days 36    
Moisture  
Dew Point 28 °F    
Average Humidity 93    
Maximum Humidity 100    
Minimum Humidity 86    
Precipitation  
Precipitation 0.29 in - - ()
Sea Level Pressure  
Sea Level Pressure 29.82 in    
Wind  
Wind Speed 4 mph (SSE)    
Max Wind Speed 10 mph    
Max Gust Speed -    
Visibility 3 miles    
Events Fog , Rain , Snow    
Averages and records for this station are not official NWS values.
T = Trace of Precipitation, MM = Missing Value Source: NWS Daily Summary

Daily Weather History Graph

Daily Weather History Graph

Search for Another Location

Airport or City:

Trip Planner

Search our weather history database for the weather conditions in past years. The results will help you decide how hot, cold, wet, or windy it might be!

Date:

Astronomy

Jan. 10, 2014 Rise Set
Actual Time 7:24 AM CST 4:36 PM CST
Civil Twilight 6:52 AM CST 5:08 PM CST
Nautical Twilight 6:16 AM CST 5:43 PM CST
Astronomical Twilight 5:42 AM CST 6:18 PM CST
Moon 12:42 PM CST (1/10) 2:28 AM CST (1/10)
Length of Visible Light 10h 16m
Length of Day
9h 12m
Waxing Gibbous, 75% of the Moon is Illuminated
Jan 10
Waxing Gibbous
Jan 15
Full
Jan 23
Last Quarter
Jan 30
New
Feb 6
First Quarter

Hourly Weather History & Observations

Time (CST) Temp. Windchill Dew Point Humidity Pressure Visibility Wind Dir Wind Speed Gust Speed Precip Events Conditions
12:15 AM 23.0 °F 18.4 °F 21.2 °F 93% 30.10 in 7.0 mi South 3.5 mph - N/A   Overcast
12:35 AM 23.0 °F 17.0 °F 21.2 °F 93% 30.09 in 5.0 mi SSW 4.6 mph - N/A   Overcast
12:55 AM 23.0 °F 17.0 °F 21.2 °F 93% 30.08 in 5.0 mi South 4.6 mph - N/A   Overcast
1:15 AM 23.0 °F 18.4 °F 21.2 °F 93% 30.06 in 5.0 mi SSE 3.5 mph - N/A   Overcast
1:35 AM 23.0 °F 17.0 °F 21.2 °F 93% 30.06 in 5.0 mi South 4.6 mph - N/A   Overcast
1:55 AM 23.0 °F 18.4 °F 21.2 °F 93% 30.06 in 5.0 mi South 3.5 mph - N/A   Overcast
2:15 AM 23.0 °F 17.0 °F 21.2 °F 93% 30.06 in 4.0 mi South 4.6 mph - N/A   Overcast
2:35 AM 23.0 °F 17.0 °F 21.2 °F 93% 30.06 in 4.0 mi South 4.6 mph - N/A   Overcast
2:55 AM 23.0 °F 17.0 °F 21.2 °F 93% 30.06 in 4.0 mi South 4.6 mph - N/A   Overcast
3:15 AM 23.0 °F 18.4 °F 21.2 °F 93% 30.05 in 3.0 mi South 3.5 mph - N/A   Overcast
3:35 AM 24.8 °F 19.1 °F 21.2 °F 86% 30.05 in 3.0 mi South 4.6 mph - N/A   Overcast
3:55 AM 24.8 °F 19.1 °F 21.2 °F 86% 30.04 in 3.0 mi South 4.6 mph - N/A   Overcast
4:15 AM 24.8 °F 20.5 °F 21.2 °F 86% 30.03 in 3.0 mi South 3.5 mph - N/A   Overcast
4:35 AM 24.8 °F 20.5 °F 21.2 °F 86% 30.03 in 2.5 mi South 3.5 mph - N/A   Overcast
4:55 AM 24.8 °F - 23.0 °F 93% 30.03 in 2.5 mi Calm Calm - N/A   Overcast
5:15 AM 24.8 °F 19.1 °F 23.0 °F 93% 30.03 in 2.5 mi South 4.6 mph - N/A   Overcast
5:35 AM 24.8 °F 20.5 °F 23.0 °F 93% 30.02 in 2.0 mi South 3.5 mph - N/A   Overcast
5:55 AM 24.8 °F - 23.0 °F 93% 30.02 in 2.0 mi Calm Calm - N/A   Overcast
6:15 AM 26.6 °F - 23.0 °F 86% 30.01 in 2.0 mi Calm Calm - N/A   Overcast
6:35 AM 26.6 °F - 23.0 °F 86% 30.02 in 2.0 mi Calm Calm - N/A   Overcast
6:55 AM 26.6 °F 22.6 °F 23.0 °F 86% 30.01 in 2.0 mi South 3.5 mph - N/A   Overcast
7:15 AM 26.6 °F 21.2 °F 23.0 °F 86% 30.00 in 1.5 mi South 4.6 mph - N/A   Overcast
7:35 AM 26.6 °F 22.6 °F 23.0 °F 86% 30.00 in 0.8 mi South 3.5 mph - N/A   Overcast
7:55 AM 26.6 °F 21.2 °F 24.8 °F 93% 30.00 in 0.8 mi SSE 4.6 mph - N/A   Overcast
8:15 AM 26.6 °F 20.0 °F 24.8 °F 93% 30.00 in 0.5 mi South 5.8 mph - N/A Fog Light Freezing Fog
8:35 AM 26.6 °F 20.0 °F 24.8 °F 93% 29.99 in 0.2 mi SSE 5.8 mph - N/A Fog Light Freezing Fog
8:55 AM 26.6 °F 21.2 °F 26.6 °F 100% 29.99 in 0.2 mi South 4.6 mph - N/A Fog Light Freezing Fog
9:15 AM 28.4 °F 23.3 °F 26.6 °F 93% 29.98 in 0.2 mi SSE 4.6 mph - N/A Fog Light Freezing Fog
9:35 AM 28.4 °F 22.2 °F 26.6 °F 93% 29.98 in 0.2 mi SSE 5.8 mph - N/A Fog Light Freezing Fog
9:55 AM 28.4 °F 21.2 °F 26.6 °F 93% 29.98 in 0.5 mi South 6.9 mph - N/A Snow Light Snow
10:15 AM 28.4 °F 22.2 °F 28.4 °F 100% 29.96 in 1.2 mi SSE 5.8 mph - N/A   Overcast
10:35 AM 30.2 °F 24.3 °F 28.4 °F 93% 29.95 in 2.0 mi SSE 5.8 mph - N/A   Overcast
10:55 AM 30.2 °F 24.3 °F 28.4 °F 93% 29.92 in 2.5 mi SSE 5.8 mph - N/A   Overcast
11:35 AM 30.2 °F 25.4 °F 28.4 °F 93% 29.88 in 7.0 mi SE 4.6 mph - N/A   Overcast
11:55 AM 30.2 °F 24.3 °F 28.4 °F 93% 29.86 in 10.0 mi SSE 5.8 mph - N/A   Overcast
12:35 PM 32.0 °F 25.6 °F 28.4 °F 87% 29.83 in 10.0 mi SE 6.9 mph - N/A   Overcast
12:55 PM 32.0 °F 27.5 °F 28.4 °F 87% 29.82 in 5.0 mi SE 4.6 mph - N/A   Overcast
1:15 PM 32.0 °F 27.5 °F 30.2 °F 93% 29.80 in 3.0 mi SE 4.6 mph - N/A   Overcast
1:35 PM 32.0 °F 27.5 °F 30.2 °F 93% 29.79 in 2.5 mi SE 4.6 mph - N/A   Overcast
1:55 PM 32.0 °F 27.5 °F 30.2 °F 93% 29.78 in 2.0 mi SE 4.6 mph - N/A   Overcast
2:15 PM 32.0 °F 26.4 °F 30.2 °F 93% 29.78 in 0.5 mi SE 5.8 mph - N/A Fog Light Freezing Fog
2:35 PM 32.0 °F 24.8 °F 30.2 °F 93% 29.75 in 0.2 mi SE 8.1 mph - N/A Fog Light Freezing Fog
2:55 PM 32.0 °F 24.2 °F 30.2 °F 93% 29.73 in 0.8 mi SE 9.2 mph - N/A   Overcast
3:15 PM 32.0 °F 23.6 °F 30.2 °F 93% 29.73 in 0.8 mi ESE 10.4 mph - N/A   Overcast
3:35 PM 32.0 °F 24.2 °F 30.2 °F 93% 29.71 in 0.2 mi SE 9.2 mph - N/A Fog Fog
3:55 PM 32.0 °F 24.8 °F 32.0 °F 100% 29.71 in 0.2 mi SE 8.1 mph - N/A Fog Fog
4:55 PM 32.0 °F 25.6 °F 32.0 °F 100% 29.66 in 5.0 mi SE 6.9 mph - N/A Rain Light Rain
5:15 PM 32.0 °F 25.6 °F 32.0 °F 100% 29.64 in 7.0 mi ESE 6.9 mph - N/A Rain Light Rain
5:35 PM 32.0 °F 25.6 °F 32.0 °F 100% 29.62 in 4.0 mi ESE 6.9 mph - 0.01 in Rain Rain
5:55 PM 32.0 °F 27.5 °F 32.0 °F 100% 29.62 in 5.0 mi SE 4.6 mph - 0.02 in Rain Rain
6:15 PM 32.0 °F 28.7 °F 32.0 °F 100% 29.60 in 4.0 mi SE 3.5 mph - 0.02 in Rain Rain
6:35 PM 32.0 °F 28.7 °F 32.0 °F 100% 29.59 in 2.5 mi SE 3.5 mph - 0.09 in   Overcast
6:55 PM 32.0 °F - 32.0 °F 100% 29.58 in 2.5 mi Calm Calm - 0.15 in   Overcast
7:35 PM 33.8 °F - 32.0 °F 93% 29.55 in 5.0 mi Calm Calm - 0.08 in Rain Light Rain
7:55 PM 33.8 °F - 32.0 °F 93% 29.52 in 5.0 mi Calm Calm - 0.09 in Rain Light Rain
8:15 PM 33.8 °F - 32.0 °F 93% 29.52 in 7.0 mi Calm Calm - N/A Rain Rain
8:35 PM 33.8 °F - 32.0 °F 93% 29.51 in 2.5 mi Calm Calm - 0.01 in Rain Heavy Rain
8:55 PM 33.8 °F 30.8 °F 32.0 °F 93% 29.50 in 3.0 mi South 3.5 mph - 0.02 in Rain Rain
9:15 PM 33.8 °F 29.6 °F 32.0 °F 93% 29.49 in 4.0 mi South 4.6 mph - N/A Rain Rain
9:35 PM 33.8 °F 28.6 °F 33.8 °F 100% 29.49 in 7.0 mi South 5.8 mph - 0.01 in Rain Rain
9:55 PM 35.6 °F 30.7 °F 33.8 °F 93% 29.48 in 7.0 mi SSW 5.8 mph - 0.01 in Rain Light Rain
10:15 PM 35.6 °F 29.9 °F 33.8 °F 93% 29.47 in 5.0 mi SSW 6.9 mph - N/A Rain Rain
10:35 PM 35.6 °F 31.7 °F 33.8 °F 93% 29.46 in 5.0 mi SSW 4.6 mph - N/A   Overcast
10:55 PM 35.6 °F 32.8 °F 33.8 °F 93% 29.46 in 3.0 mi SSW 3.5 mph - N/A   Overcast
11:15 PM 35.6 °F 31.7 °F 33.8 °F 93% 29.45 in 4.0 mi SSW 4.6 mph - N/A Rain Rain
11:35 PM 35.6 °F 29.9 °F 35.6 °F 100% 29.45 in 5.0 mi SW 6.9 mph - N/A Rain Rain
11:55 PM 37.4 °F 31.4 °F 35.6 °F 93% 29.44 in 7.0 mi SSW 8.1 mph - N/A Rain Light Rain